Location: Val-d'Or
(48.1170°N, 77.7670°W)
Time: 07:48:01
(UTC-04:00)

ISS - Pass Details

Date: 20 May 2018
Orbit: 402 x 407 km, 51.6° (Epoch: 26 May)

Event Time Altitude Azimuth Distance (km) Brightness Sun altitude
Exits shadow 01:48:50 10° 286° (WNW) 1,492 -0.9 -21.3°
Reaches altitude 10° 01:48:56 10° 287° (WNW) 1,458 -1.0 -21.3°
Maximum altitude 01:52:04 42° 0° (N) 587 -2.6 -21.2°
Drops below altitude 10° 01:55:12 10° 73° (ENE) 1,457 -0.7 -21.1°
Sets 01:57:20 0° 81° (E) 2,317 0.3 -21.0°
